Wind_Speed
19 17 15 13 13 11 8 6 5 6 7 11 15 18 21 19 15 13 11 11 10 9 8 7 7 8 8 8 9 10 12 14 15 17 19 19 20 20 20 20 20 20 20 20 20 20 20 20 20
20 18 15 14 14 13 11 9 6 7 10 12 15 17 18 16 12 11 9 8 8 7 6 6 6 6 6 6 6 7 8 9 11 13 15 16 17 18 19 19 20 20 20 21 21 20 20 20 20
20 18 16 15 16 14 12 11 7 6 10 12 14 14 14 10 8 7 7 6 5 5 4 4 5 5 5 5 5 6 7 7 8 9 11 13 15 16 17 18 18 19 20 20 20 20 19 19 19
17 16 15 16 17 16 13 11 6 6 8 11 13 13 9 6 6 6 7 6 5 4 4 4 4 4 4 4 4 5 5 6 7 8 9 11 12 14 15 16 17 17 18 18 18 17 17 18 18
14 15 16 17 18 17 15 11 7 5 9 11 12 10 7 5 6 7 8 7 6 5 5 4 4 4 4 4 4 5 5 6 6 7 8 9 10 12 13 14 15 15 16 16 17 17 17 17 18
13 15 18 20 22 20 16 11 6 6 10 13 12 9 6 5 7 8 8 8 6 5 5 4 4 4 4 5 5 6 6 6 7 8 9 10 11 12 13 14 15 16 16 17 17 18 18 18 18
14 16 20 23 23 19 14 9 5 8 13 14 12 8 5 6 8 10 9 9 8 7 6 5 4 4 5 5 6 6 6 7 8 9 10 11 12 13 14 15 16 17 17 18 18 18 18 18 18
15 19 23 23 23 19 14 9 7 10 14 14 10 7 6 6 8 10 10 9 8 7 6 5 5 5 5 5 6 6 7 7 8 9 10 12 13 13 14 15 16 17 17 18 18 18 18 18 19
16 21 24 24 23 19 15 11 10 13 15 14 10 7 4 5 7 9 10 9 8 8 7 6 6 5 5 6 6 7 7 8 9 9 10 12 12 13 14 15 16 16 17 17 17 18 18 19 20
17 24 25 23 22 19 16 13 12 13 14 13 10 6 5 6 6 7 9 10 10 9 8 7 7 6 6 6 7 7 8 9 9 10 10 11 12 12 13 14 14 15 16 16 17 17 18 19 20
20 25 24 23 22 19 16 12 12 15 15 13 11 9 8 8 7 7 9 10 10 10 10 9 8 8 7 7 8 8 9 10 10 10 11 11 12 12 13 13 14 15 15 16 16 17 18 19 20
22 26 25 24 21 18 14 13 14 17 17 15 13 13 11 10 11 11 11 11 10 10 11 10 10 10 9 9 9 9 10 10 10 11 12 12 13 14 15 15 15 16 17 17 17 17 19 20 21
23 27 26 24 21 18 16 16 18 19 19 17 15 14 15 14 15 14 13 14 12 11 12 11 12 12 12 12 11 11 12 12 13 13 13 14 16 17 18 18 18 18 19 20 20 20 21 22 24
24 28 28 26 23 21 19 20 21 22 23 21 19 18 17 17 17 17 16 18 17 15 13 13 14 15 14 13 14 14 14 15 16 16 17 17 17 19 20 21 22 22 23 24 24 24 25 26 27
28 29 27 25 24 22 21 21 22 24 25 24 23 22 21 20 20 19 21 22 21 20 17 15 15 17 17 16 16 16 17 17 19 20 20 21 21 22 23 24 25 26 26 27 28 28 29 30 31
31 30 27 25 24 22 23 21 21 25 27 26 25 24 23 24 25 24 25 25 26 24 21 19 20 21 22 23 20 19 20 21 22 23 24 25 25 25 26 28 28 29 29 30 31 32 33 34 35
32 30 27 25 24 23 24 20 20 25 28 27 26 26 26 27 28 29 29 30 29 28 26 25 26 24 26 28 25 25 25 25 26 27 28 29 30 30 30 31 32 32 32 32 33 35 37 38 39
30 30 29 27 25 26 26 23 20 24 27 28 27 27 28 30 31 33 35 34 33 31 29 28 28 29 31 32 32 32 30 29 30 31 31 33 33 34 35 35 34 34 34 34 34 36 39 41 42
31 32 32 29 29 31 29 26 24 25 28 29 28 29 30 32 33 36 37 36 34 33 33 33 32 33 34 36 37 37 36 34 33 34 35 36 37 37 39 39 37 37 35 35 36 37 40 42 44
33 34 32 29 30 32 33 31 28 27 27 28 29 30 32 33 35 36 37 37 38 37 35 35 36 37 36 36 39 40 39 37 37 37 37 38 39 40 40 40 39 37 37 37 37 39 41 44 45
31 31 30 29 29 33 35 33 29 27 26 27 29 32 34 35 35 37 38 38 37 37 35 36 38 39 39 40 42 41 41 40 38 38 38 39 41 41 42 42 41 39 38 39 40 42 43 45 46
28 27 27 29 30 32 33 34 29 27 28 29 30 32 34 35 37 36 36 36 36 36 36 38 40 41 43 44 43 44 41 39 39 39 40 41 42 43 43 43 41 41 41 42 43 44 45 46 48
27 25 26 28 30 32 32 34 29 28 32 33 33 34 35 36 36 35 34 34 35 36 37 39 41 44 45 44 45 43 40 39 39 40 41 41 43 44 44 44 44 44 45 45 46 47 47 48 50
24 24 25 28 30 29 25 30 27 23 29 33 36 37 37 37 36 35 33 33 34 36 39 42 44 46 46 45 44 43 41 40 40 41 42 43 44 45 45 46 46 47 47 47 48 48 49 51 53
23 23 24 26 26 20 17 22 19 19 24 28 31 32 33 32 32 31 30 32 34 38 42 45 48 48 47 44 44 44 43 42 42 43 44 45 46 46 47 47 48 48 48 49 49 50 52 54 56
21 22 22 22 20 16 17 17 14 17 21 23 25 25 25 26 27 29 31 33 36 40 43 46 47 47 47 46 45 44 44 44 44 45 47 48 48 49 49 50 50 50 50 51 52 54 55 57 59
18 19 18 20 19 18 19 18 16 18 21 22 22 23 24 26 29 31 33 36 39 42 44 45 45 45 46 43 42 43 44 45 47 49 50 50 51 52 52 52 52 52 53 55 56 57 58 60 61
21 18 19 21 21 21 20 20 21 24 25 25 26 27 28 31 33 35 37 39 41 43 46 45 42 41 40 40 41 43 45 47 50 51 52 53 54 55 55 56 56 58 58 59 60 60 61 61 62
23 23 24 22 22 22 22 22 24 26 28 30 31 32 33 35 36 38 39 40 42 44 45 44 43 41 38 39 41 45 47 50 52 54 55 56 57 58 59 60 61 61 62 62 62 62 62 63 63
25 25 25 26 25 23 24 26 27 29 30 31 32 33 34 36 37 39 39 41 43 44 45 44 42 39 38 41 44 47 50 53 55 57 58 60 61 62 63 63 64 64 63 63 63 62 62 63 63
Wind_Direction
218 212 206 195 185 181 203 241 268 290 309 318 322 322 320 316 316 316 311 307 300 296 296 295 292 291 289 281 274 270 266 265 263 261 260 259 260 261 263 265 267 269 269 269 269 268 268 267 266
221 217 208 196 184 185 210 231 240 271 292 309 314 316 314 314 317 319 317 310 303 296 293 294 297 299 294 287 281 277 270 265 262 259 258 258 258 259 261 264 266 267 268 268 269 269 269 268 269
223 219 210 196 183 188 211 221 224 252 292 308 311 310 310 317 323 331 336 334 328 319 311 307 307 303 297 292 288 285 279 271 264 261 259 258 258 259 261 263 264 265 266 267 268 269 270 271 272
221 216 205 191 180 190 210 222 222 258 294 309 312 306 306 331 351 359 2 0 357 357 355 345 335 325 315 310 309 304 297 288 280 274 270 266 263 262 262 264 266 267 268 268 268 269 269 271 272
216 207 192 179 179 191 207 216 215 256 295 305 307 303 307 351 10 13 12 10 10 9 5 0 352 350 347 340 332 324 318 309 301 294 287 279 274 270 269 269 269 269 269 269 270 270 270 270 271
205 193 182 178 183 192 205 217 233 271 292 298 297 303 313 0 13 13 14 14 10 8 1 357 355 357 350 342 337 333 326 317 308 301 294 287 282 278 276 274 272 271 270 271 272 272 272 272 272
194 185 179 179 184 191 200 211 239 277 288 289 290 295 322 3 15 16 16 15 6 0 352 348 347 351 349 342 335 330 325 318 310 304 298 292 287 283 280 277 274 273 272 272 273 273 273 273 272
188 181 177 179 187 193 195 196 231 267 276 281 283 290 321 5 19 16 11 10 3 357 351 346 348 348 347 344 340 335 328 323 317 311 305 299 294 289 284 280 278 276 274 273 272 272 272 272 272
187 178 178 183 190 192 189 187 223 251 269 273 271 286 320 4 19 17 7 4 2 359 353 348 346 343 340 338 338 337 335 333 328 321 313 307 303 298 293 288 284 281 277 275 273 273 273 273 273
186 180 187 193 196 193 191 195 219 243 257 261 263 285 313 328 354 6 359 359 359 357 357 353 348 344 339 339 339 339 338 338 334 330 324 319 314 310 303 298 293 287 282 278 276 275 275 274 273
186 189 196 198 194 192 194 198 228 246 243 253 259 267 293 313 319 332 341 344 350 350 352 356 353 346 343 342 343 342 339 339 337 334 330 326 322 318 312 307 300 294 288 284 281 279 277 276 276
194 198 203 204 201 199 203 213 231 244 251 252 264 273 278 301 303 310 318 325 336 344 343 348 347 342 344 345 345 343 336 335 335 333 329 327 325 322 317 310 303 298 294 291 287 282 279 278 277
205 206 208 211 213 219 216 219 231 240 252 261 267 272 282 294 300 303 306 314 320 324 327 331 335 334 336 337 336 335 333 329 331 330 327 327 325 321 318 313 307 302 297 293 290 285 281 279 278
214 215 216 219 225 233 226 222 229 238 249 260 267 272 279 286 290 296 301 304 308 315 318 316 323 322 322 323 324 326 327 326 324 324 321 318 319 318 314 312 308 302 296 291 288 285 282 281 279
219 223 226 229 234 239 236 229 230 237 245 256 264 271 276 281 285 286 290 299 301 307 310 313 311 312 311 310 312 315 316 316 316 315 312 311 312 315 311 307 307 304 297 291 285 282 281 281 281
227 230 233 235 239 243 244 239 235 241 245 251 258 267 274 278 283 287 288 293 298 305 305 310 308 308 308 307 306 308 308 307 307 307 307 308 309 309 309 304 304 303 299 293 287 283 282 282 283
233 236 237 238 243 246 249 244 233 241 246 248 255 264 271 276 281 286 286 290 295 301 302 309 309 306 308 307 305 305 302 301 301 302 303 304 305 305 304 303 299 299 297 292 286 281 280 282 283
237 238 236 234 237 239 243 242 228 232 243 248 254 262 269 274 280 283 285 290 293 299 302 303 306 306 308 307 305 303 300 297 297 298 298 298 299 300 300 299 296 295 294 291 286 282 279 280 281
233 235 234 232 231 235 237 237 231 227 236 244 250 260 268 273 278 281 285 290 292 297 302 303 302 302 301 300 299 298 296 294 294 294 293 293 294 296 297 294 295 294 293 291 288 285 283 283 282
230 233 234 232 232 238 240 239 236 231 234 240 249 258 265 270 274 279 283 288 292 296 299 299 301 299 297 295 294 292 290 292 291 291 291 292 293 294 295 293 292 292 292 291 288 286 285 284 284
232 235 236 233 230 237 243 244 242 240 240 241 247 256 264 270 275 278 282 286 289 292 294 296 295 295 296 295 291 288 287 289 291 290 290 291 292 294 295 295 293 291 291 290 288 288 287 287 287
228 232 235 234 232 234 242 247 244 244 244 244 249 257 263 268 273 276 279 283 286 289 291 292 291 292 293 290 287 286 287 289 290 289 289 290 291 293 295 296 295 295 293 292 291 290 289 289 288
225 226 232 236 238 238 240 250 250 244 246 247 250 256 261 266 270 273 276 280 283 286 287 287 288 289 289 286 286 290 292 290 290 290 290 290 292 294 295 295 295 295 294 293 292 292 291 290 290
224 226 232 237 241 244 243 250 253 244 245 246 249 253 258 261 264 268 272 276 280 283 283 284 285 286 285 286 288 293 294 291 290 290 291 292 293 293 294 294 294 293 293 293 293 292 291 291 291
219 226 233 239 243 245 239 244 244 239 239 242 246 250 253 255 260 265 269 275 277 277 277 278 281 283 286 289 292 294 293 291 291 291 292 292 293 293 293 293 293 292 291 291 291 291 291 292 292
220 228 236 242 243 232 222 232 236 240 240 244 248 252 255 257 261 266 269 271 271 271 273 275 279 283 287 289 290 291 291 292 292 292 292 292 292 292 292 292 292 291 291 291 291 292 292 292 291
225 234 239 242 239 234 225 230 242 246 248 251 254 257 259 262 263 266 269 269 269 269 273 274 278 281 284 286 289 290 290 290 290 290 290 290 290 290 290 291 291 291 292 293 293 293 293 292 293
224 233 241 243 243 242 238 238 243 246 250 254 258 261 263 265 266 268 269 270 272 273 277 276 278 280 282 284 286 287 288 288 288 289 289 289 289 290 290 291 292 293 294 294 294 293 294 294 294
222 228 236 244 248 250 251 251 249 248 249 252 255 260 263 266 268 270 272 274 276 277 279 278 278 278 278 281 284 285 286 287 287 287 287 287 288 288 289 291 292 293 294 294 294 294 294 296 297
222 227 234 241 248 253 256 257 254 252 252 254 257 261 265 267 270 273 275 276 278 278 280 281 281 279 280 284 285 285 286 286 285 285 286 286 287 289 290 291 292 293 294 295 295 295 296 298 299
Height
5897 5900 5903 5906 5908 5909 5907 5906 5904 5905 5904 5906 5908 5908 5907 5906 5906 5906 5903 5901 5900 5900 5899 5899 5899 5899 5899 5898 5898 5898 5898 5898 5898 5898 5898 5898 5899 5899 5899 5899 5899 5899 5898 5898 5898 5898 5897 5897 5897
5895 5898 5902 5904 5906 5906 5906 5905 5904 5904 5904 5906 5907 5908 5907 5905 5903 5902 5900 5900 5899 5898 5898 5898 5898 5898 5898 5897 5897 5897 5897 5897 5897 5897 5897 5897 5897 5897 5897 5897 5897 5896 5896 5895 5895 5894 5894 5894 5894
5893 5895 5899 5902 5904 5905 5904 5903 5902 5902 5902 5905 5907 5907 5906 5904 5902 5900 5899 5898 5898 5897 5897 5897 5897 5897 5897 5897 5896 5896 5896 5896 5896 5895 5895 5895 5895 5895 5895 5894 5894 5894 5893 5893 5892 5892 5891 5891 5891
5890 5894 5897 5900 5902 5903 5903 5902 5901 5901 5902 5904 5906 5906 5905 5904 5901 5899 5898 5898 5897 5897 5896 5896 5896 5896 5896 5896 5895 5895 5895 5895 5895 5894 5894 5894 5893 5893 5893 5893 5892 5892 5891 5890 5890 5889 5889 5888 5888
5888 5891 5894 5898 5900 5900 5900 5900 5900 5900 5902 5904 5905 5904 5903 5903 5900 5898 5898 5897 5896 5896 5896 5895 5895 5895 5895 5895 5894 5894 5894 5894 5893 5893 5893 5893 5892 5892 5891 5891 5890 5890 5889 5888 5888 5887 5886 5886 5885
5887 5889 5892 5895 5897 5897 5898 5898 5897 5899 5901 5903 5904 5903 5902 5902 5900 5898 5897 5897 5896 5896 5895 5895 5895 5894 5894 5894 5894 5893 5893 5893 5893 5892 5892 5891 5891 5890 5890 5889 5888 5888 5887 5886 5885 5884 5884 5883 5882
5886 5888 5890 5893 5895 5896 5897 5896 5896 5897 5900 5902 5903 5902 5901 5901 5900 5898 5897 5897 5896 5895 5895 5894 5894 5893 5893 5893 5893 5892 5892 5892 5891 5891 5890 5890 5889 5888 5888 5887 5886 5885 5884 5883 5882 5881 5881 5880 5879
5883 5886 5888 5891 5893 5894 5893 5894 5894 5896 5898 5900 5901 5901 5900 5900 5899 5898 5897 5897 5896 5895 5895 5894 5893 5893 5892 5892 5892 5891 5891 5890 5890 5889 5888 5888 5887 5886 5885 5884 5883 5883 5882 5881 5880 5879 5878 5877 5875
5881 5884 5886 5889 5890 5890 5890 5891 5894 5896 5897 5898 5899 5899 5899 5899 5899 5898 5897 5897 5896 5895 5894 5893 5893 5892 5892 5891 5891 5890 5889 5889 5888 5887 5886 5885 5885 5884 5883 5882 5881 5880 5879 5878 5877 5876 5875 5873 5872
5880 5882 5884 5887 5888 5887 5887 5889 5892 5893 5894 5895 5896 5897 5898 5898 5898 5898 5897 5896 5896 5895 5894 5893 5892 5891 5891 5890 5889 5888 5888 5887 5886 5885 5884 5883 5882 5881 5880 5879 5878 5877 5876 5875 5874 5873 5872 5870 5869
5878 5880 5882 5884 5884 5884 5884 5886 5889 5890 5891 5893 5894 5895 5896 5896 5897 5898 5898 5897 5895 5894 5893 5892 5891 5891 5890 5889 5888 5887 5886 5885 5884 5883 5882 5881 5880 5878 5877 5877 5875 5874 5873 5872 5871 5870 5868 5867 5865
5876 5877 5879 5880 5881 5882 5881 5883 5885 5887 5889 5890 5892 5892 5893 5894 5895 5896 5897 5896 5895 5894 5893 5892 5890 5889 5888 5887 5886 5885 5884 5883 5882 5881 5880 5879 5877 5876 5875 5874 5873 5871 5870 5869 5868 5867 5865 5864 5862
5873 5874 5876 5877 5878 5878 5879 5881 5882 5884 5885 5886 5888 5889 5891 5891 5892 5893 5894 5894 5894 5893 5892 5891 5889 5887 5886 5885 5884 5883 5882 5880 5879 5879 5877 5876 5875 5873 5872 5870 5869 5868 5866 5865 5864 5863 5862 5860 5858
5871 5870 5872 5873 5875 5876 5876 5878 5880 5881 5882 5883 5884 5886 5887 5888 5888 5889 5890 5890 5891 5890 5890 5889 5887 5885 5884 5883 5881 5880 5879 5877 5876 5875 5874 5873 5872 5870 5868 5866 5865 5864 5862 5861 5860 5858 5857 5856 5854
5866 5866 5869 5871 5872 5873 5874 5876 5878 5879 5879 5880 5881 5882 5883 5884 5885 5886 5886 5887 5887 5886 5886 5885 5884 5882 5880 5879 5878 5877 5876 5874 5873 5871 5869 5868 5867 5865 5863 5861 5859 5858 5857 5855 5853 5851 5850 5849 5847
5860 5863 5866 5869 5870 5871 5872 5874 5877 5876 5876 5877 5877 5878 5879 5880 5881 5881 5882 5882 5882 5881 5881 5880 5879 5877 5875 5874 5873 5872 5871 5869 5868 5866 5864 5862 5860 5858 5856 5854 5852 5850 5849 5847 5845 5844 5842 5841 5839
5856 5860 5863 5865 5867 5868 5867 5871 5874 5872 5871 5872 5873 5874 5875 5875 5876 5876 5877 5877 5877 5877 5876 5874 5872 5870 5869 5866 5865 5864 5864 5863 5861 5859 5857 5855 5853 5851 5849 5847 5845 5843 5841 5840 5838 5836 5834 5832 5831
5852 5854 5857 5860 5862 5862 5861 5864 5868 5868 5866 5867 5868 5869 5870 5870 5871 5872 5871 5871 5871 5870 5869 5867 5867 5865 5862 5859 5858 5856 5855 5854 5853 5851 5849 5847 5846 5844 5842 5840 5838 5836 5833 5832 5830 5827 5825 5823 5822
5844 5846 5849 5854 5855 5854 5855 5856 5860 5862 5863 5863 5864 5865 5865 5865 5866 5866 5865 5865 5864 5863 5863 5862 5861 5859 5856 5853 5851 5849 5848 5846 5845 5844 5842 5840 5838 5836 5834 5832 5829 5827 5825 5823 5820 5818 5816 5813 5811
5836 5839 5842 5847 5849 5849 5849 5850 5852 5855 5857 5858 5859 5860 5861 5861 5861 5860 5859 5858 5857 5856 5856 5855 5854 5852 5849 5846 5844 5842 5840 5838 5837 5836 5834 5832 5830 5828 5825 5823 5820 5818 5816 5813 5811 5808 5805 5803 5800
5830 5833 5837 5840 5843 5842 5842 5844 5846 5849 5851 5853 5855 5855 5855 5855 5855 5854 5853 5852 5851 5850 5849 5848 5847 5844 5841 5838 5837 5834 5832 5831 5830 5828 5826 5824 5822 5820 5817 5814 5811 5809 5806 5804 5801 5798 5795 5792 5789
5825 5828 5831 5833 5835 5836 5837 5837 5841 5843 5845 5847 5848 5849 5849 5849 5848 5848 5847 5846 5845 5844 5842 5842 5840 5837 5834 5831 5828 5825 5822 5822 5822 5820 5818 5816 5813 5811 5808 5805 5801 5799 5796 5793 5790 5788 5785 5782 5778
5819 5822 5824 5826 5827 5830 5831 5831 5836 5839 5839 5840 5842 5842 5842 5841 5841 5840 5840 5840 5839 5837 5836 5835 5832 5829 5827 5823 5819 5816 5813 5814 5813 5812 5810 5807 5805 5802 5799 5795 5792 5789 5786 5782 5779 5776 5773 5770 5766
5813 5816 5818 5819 5821 5824 5828 5828 5829 5833 5833 5833 5834 5834 5834 5834 5834 5834 5834 5833 5832 5831 5829 5827 5824 5820 5817 5814 5811 5809 5808 5807 5806 5804 5802 5799 5796 5793 5790 5786 5782 5779 5775 5772 5768 5765 5761 5757 5753
5807 5810 5813 5814 5815 5819 5822 5821 5824 5824 5824 5825 5825 5826 5827 5827 5827 5827 5827 5826 5825 5824 5822 5819 5816 5812 5808 5804 5803 5803 5801 5800 5798 5796 5793 5790 5787 5784 5781 5777 5772 5768 5765 5761 5757 5753 5749 5745 5740
5802 5805 5808 5810 5812 5815 5816 5816 5818 5817 5818 5818 5819 5820 5820 5820 5821 5820 5820 5819 5817 5816 5813 5811 5808 5805 5802 5800 5798 5796 5793 5791 5789 5787 5784 5781 5777 5774 5770 5766 5762 5758 5754 5750 5745 5741 5736 5731 5726
5798 5800 5803 5805 5806 5808 5811 5812 5813 5812 5812 5813 5813 5813 5814 5814 5814 5813 5812 5811 5809 5807 5805 5802 5799 5798 5796 5794 5791 5788 5786 5783 5780 5777 5774 5770 5766 5762 5758 5754 5750 5746 5741 5737 5732 5727 5722 5716 5711
5793 5796 5798 5799 5800 5802 5805 5806 5806 5806 5807 5807 5807 5808 5808 5808 5807 5807 5805 5804 5802 5799 5797 5794 5791 5789 5787 5785 5782 5780 5777 5774 5770 5766 5762 5758 5754 5750 5746 5741 5737 5732 5728 5723 5717 5711 5706 5700 5694
5788 5790 5791 5793 5795 5797 5798 5801 5800 5800 5801 5801 5802 5801 5801 5801 5800 5799 5798 5796 5794 5791 5788 5785 5782 5779 5777 5775 5773 5770 5767 5763 5759 5755 5750 5746 5742 5737 5733 5728 5723 5718 5713 5708 5702 5696 5690 5685 5678
5781 5783 5785 5787 5789 5791 5792 5795 5792 5793 5793 5794 5795 5795 5794 5793 5792 5790 5788 5787 5785 5782 5779 5776 5772 5770 5767 5765 5763 5759 5756 5752 5747 5743 5738 5733 5729 5724 5719 5714 5709 5704 5698 5692 5687 5681 5675 5669 5663